Danvers, MA

12:05 PM EST on February 27, 2017 (GMT -0500)
Beverly Municipal

Weather History for KBVY - April, 2013

Change the Weather History Date:

Sunday, April 28, 2013

  Actual Average Record
Temperature  
Mean Temperature 53 °F -  
Max Temperature 63 °F 60 °F 91 °F (2009)
Min Temperature 43 °F 39 °F 30 °F (2006)
Degree Days  
Heating Degree Days 12    
Growing Degree Days 3 (Base 50)    
Moisture  
Dew Point 36 °F    
Average Humidity 54    
Maximum Humidity 82    
Minimum Humidity 32    
Precipitation  
Precipitation 0.00 in - - ()
Sea Level Pressure  
Sea Level Pressure 30.28 in    
Wind  
Wind Speed 5 mph (SSE)    
Max Wind Speed 16 mph    
Max Gust Speed 22 mph    
Visibility 10 miles    
Events      
Averages and records for this station are not official NWS values.
T = Trace of Precipitation, MM = Missing Value Source: NWS Daily Summary

Daily Weather History Graph

Daily Weather History Graph

Search for Another Location

Airport or City:

Trip Planner

Search our weather history database for the weather conditions in past years. The results will help you decide how hot, cold, wet, or windy it might be!

Date:

Astronomy

Apr. 28, 2013 Rise Set
Actual Time 5:42 AM EDT 7:40 PM EDT
Civil Twilight 5:11 AM EDT 8:11 PM EDT
Nautical Twilight 4:34 AM EDT 8:48 PM EDT
Astronomical Twilight 3:54 AM EDT 9:29 PM EDT
Moon 11:10 PM EDT (4/28) 7:53 AM EDT (4/28)
Length of Visible Light 14h 59m
Length of Day
13h 58m
Waning Gibbous, 89% of the Moon is Illuminated
Apr 28
Waning Gibbous
May 2
Last Quarter
May 9
New
May 18
First Quarter
May 25
Full

Hourly Weather History & Observations

Time (EDT) Temp. Dew Point Humidity Pressure Visibility Wind Dir Wind Speed Gust Speed Precip Events Conditions
12:53 AM 48.0 °F 36.0 °F 63% 30.32 in 10.0 mi SSW 4.6 mph - N/A   Partly Cloudy
1:53 AM 46.9 °F 35.1 °F 63% 30.31 in 10.0 mi SSW 3.5 mph - N/A   Clear
2:53 AM 46.0 °F 35.1 °F 66% 30.30 in 10.0 mi Calm Calm - N/A   Clear
3:53 AM 44.1 °F 35.1 °F 71% 30.30 in 10.0 mi Calm Calm - N/A   Clear
4:53 AM 45.0 °F 35.1 °F 68% 30.29 in 10.0 mi Calm Calm - N/A   Clear
5:53 AM 43.0 °F 35.1 °F 74% 30.29 in 10.0 mi Calm Calm - N/A   Clear
6:53 AM 43.0 °F 37.9 °F 82% 30.30 in 10.0 mi Calm Calm - N/A   Clear
7:53 AM 51.1 °F 39.0 °F 63% 30.31 in 10.0 mi Calm Calm - N/A   Clear
8:53 AM 55.4 °F 37.4 °F 51% 30.33 in 10.0 mi Calm Calm - N/A   Clear
9:53 AM 57.9 °F 39.9 °F 51% 30.33 in 10.0 mi SE 6.9 mph - N/A   Clear
10:53 AM 60.1 °F 39.9 °F 47% 30.32 in 10.0 mi SE 9.2 mph - N/A   Clear
11:53 AM 63.0 °F 36.0 °F 37% 30.31 in 10.0 mi SSE 11.5 mph - N/A   Clear
12:53 PM 61.0 °F 33.1 °F 35% 30.30 in 10.0 mi SE 15.0 mph 19.6 mph N/A   Clear
1:53 PM 61.0 °F 30.9 °F 32% 30.28 in 10.0 mi SE 15.0 mph - N/A   Clear
2:53 PM 60.1 °F 32.0 °F 35% 30.27 in 10.0 mi SE 15.0 mph - N/A   Clear
3:53 PM 57.9 °F 36.0 °F 44% 30.26 in 10.0 mi SE 16.1 mph 21.9 mph N/A   Clear
4:53 PM 57.0 °F 37.0 °F 47% 30.25 in 10.0 mi SE 15.0 mph 21.9 mph N/A   Clear
5:53 PM 55.9 °F 37.9 °F 51% 30.24 in 10.0 mi SE 12.7 mph - N/A   Clear
6:53 PM 53.1 °F 39.9 °F 61% 30.24 in 10.0 mi SE 13.8 mph - N/A   Clear
7:53 PM 53.1 °F 39.9 °F 61% 30.22 in 10.0 mi SE 9.2 mph - N/A   Clear
8:53 PM 53.1 °F 37.0 °F 55% 30.23 in 10.0 mi SSE 6.9 mph - N/A   Clear
9:53 PM 52.0 °F 35.1 °F 53% 30.25 in 10.0 mi South 6.9 mph - N/A   Clear
10:53 PM 51.1 °F 32.0 °F 48% 30.25 in 10.0 mi South 4.6 mph - N/A   Clear
11:53 PM 50.0 °F 28.9 °F 44% 30.26 in 10.0 mi SSW 3.5 mph - N/A   Clear